Location: Sihaung
(22.8641°N, 94.0549°E)
Time: 17:36:25
(UTC+00:00)

Cosmos 1869 Rocket - Pass Details

Date: 03 March 2021
Orbit: 605 x 633 km, 82.5° (Epoch: 13 April)

Event Time Altitude Azimuth Distance (km) Brightness Sun altitude
Rises 13:15:10 0° 183° (S) 2,846 7.0 -20.9°
Reaches altitude 10° 13:17:22 10° 183° (S) 1,948 6.1 -21.4°
Maximum altitude 13:21:41 87° 94° (E) 614 3.4 -22.3°
Drops below altitude 10° 13:26:02 10° 6° (N) 1,968 6.1 -23.4°
Sets 13:28:16 0° 6° (N) 2,880 7.0 -23.9°
